Weather History for EGPN - November, 2012

Change the Weather History Date:

Tuesday, November 20, 2012

  Actual Average Record
Temperature  
Mean Temperature 50 °F -  
Max Temperature 53 °F 44 °F 53 °F (2011)
Min Temperature 48 °F 37 °F 28 °F (2004)
Degree Days  
Heating Degree Days 14    
Moisture  
Dew Point 44 °F    
Average Humidity 84    
Maximum Humidity 94    
Minimum Humidity 66    
Precipitation  
Precipitation 0.00 in - - ()
Sea Level Pressure  
Sea Level Pressure 29.41 in    
Wind  
Wind Speed 9 mph ()    
Max Wind Speed 26 mph    
Max Gust Speed 34 mph    
Visibility 6.2 miles    
Events Rain    
Averages and records for this station are not official NWS values.
T = Trace of Precipitation, MM = Missing Value Source: Averaged Metar Reports

Daily Weather History Graph

Daily Weather History Graph

Search for Another Location

Airport or City:

Trip Planner

Search our weather history database for the weather conditions in past years. The results will help you decide how hot, cold, wet, or windy it might be!

Date:

Astronomy

Nov. 20, 2012 Rise Set
Actual Time 8:01 AM GMT 3:53 PM GMT
Civil Twilight 7:17 AM GMT 4:37 PM GMT
Nautical Twilight 6:30 AM GMT 5:24 PM GMT
Astronomical Twilight 5:45 AM GMT 6:09 PM GMT
Moon 12:51 PM GMT (11/20) 11:53 PM GMT (11/20)
Length of Visible Light 9h 19m
Length of Day
7h 51m
Waxing Crescent, 49% of the Moon is Illuminated
Nov 20
Waxing Crescent
Nov 20
First Quarter
Nov 28
Full
Dec 6
Last Quarter
Dec 13
New

Hourly Weather History & Observations

Time (GMT) Temp. Dew Point Humidity Pressure Visibility Wind Dir Wind Speed Gust Speed Precip Events Conditions
6:20 AM 48.2 °F 44.6 °F 87% 29.47 in 6.2 mi NE 2.3 mph - N/A   Mostly Cloudy
6:50 AM 48.2 °F 44.6 °F 87% 29.47 in 6.2 mi NE 3.5 mph - N/A   Mostly Cloudy
7:20 AM 48.2 °F 46.4 °F 93% 29.47 in 6.2 mi ENE 4.6 mph - N/A Rain Rain
7:50 AM 48.2 °F 46.4 °F 93% 29.47 in 6.2 mi SSE 11.5 mph - N/A   Mostly Cloudy
8:20 AM 48.2 °F 44.6 °F 87% 29.47 in 6.2 mi SE 6.9 mph - N/A   Mostly Cloudy
8:50 AM 48.2 °F 44.6 °F 87% 29.44 in 6.2 mi SE 6.9 mph - N/A   Mostly Cloudy
9:20 AM 48.2 °F 44.6 °F 87% 29.44 in 6.2 mi SSE 9.2 mph - N/A   Mostly Cloudy
9:50 AM 50.0 °F 46.4 °F 87% 29.44 in 6.2 mi ESE 10.4 mph - N/A   Mostly Cloudy
10:20 AM 50.0 °F 46.4 °F 87% 29.42 in 6.2 mi East 8.1 mph - N/A   Mostly Cloudy
10:50 AM 50.0 °F 46.4 °F 87% 29.42 in 6.2 mi East 9.2 mph - N/A Rain Light Rain Showers
11:20 AM 50.0 °F 46.4 °F 87% 29.39 in 6.2 mi East 10.4 mph - N/A   Scattered Clouds
11:50 AM 50.0 °F 46.4 °F 87% 29.39 in 6.2 mi ENE 9.2 mph - N/A   Scattered Clouds
12:20 PM 50.0 °F 46.4 °F 87% 29.36 in 6.2 mi ENE 10.4 mph - N/A   Scattered Clouds
12:50 PM 50.0 °F 48.2 °F 94% 29.36 in 6.2 mi East 10.4 mph - N/A   Mostly Cloudy
1:20 PM 50.0 °F 48.2 °F 94% 29.36 in 6.2 mi East 10.4 mph - N/A   Mostly Cloudy
1:50 PM 50.0 °F 46.4 °F 87% 29.33 in 6.2 mi ESE 11.5 mph - N/A   Mostly Cloudy
2:20 PM 50.0 °F 46.4 °F 87% 29.33 in 6.2 mi SE 9.2 mph - N/A   Mostly Cloudy
2:50 PM 50.0 °F 48.2 °F 94% 29.33 in 6.2 mi ESE 5.8 mph - N/A   Mostly Cloudy
3:20 PM 53.6 °F 48.2 °F 82% 29.33 in 6.2 mi South 12.7 mph - N/A   Mostly Cloudy
3:50 PM 51.8 °F 46.4 °F 82% 29.36 in 6.2 mi SW 13.8 mph - N/A   Scattered Clouds
4:20 PM 48.2 °F 44.6 °F 87% 29.36 in 6.2 mi WSW 13.8 mph - N/A   Scattered Clouds
4:50 PM 48.2 °F 44.6 °F 87% 29.36 in 6.2 mi WSW 13.8 mph - N/A   Scattered Clouds
5:20 PM 48.2 °F 44.6 °F 87% 29.39 in 6.2 mi WSW 13.8 mph - N/A   Scattered Clouds
5:50 PM 48.2 °F 41.0 °F 76% 29.39 in 6.2 mi West 10.4 mph - N/A   Scattered Clouds
6:20 PM 48.2 °F 41.0 °F 76% 29.39 in 6.2 mi West 8.1 mph - N/A   Scattered Clouds
6:50 PM 48.2 °F 41.0 °F 76% 29.42 in 6.2 mi WSW 10.4 mph - N/A   Scattered Clouds
7:20 PM 48.2 °F 41.0 °F 76% 29.42 in 6.2 mi WSW 10.4 mph - N/A   Partly Cloudy
7:50 PM 50.0 °F 41.0 °F 71% 29.44 in 6.2 mi SSW 20.7 mph - N/A   Partly Cloudy
8:20 PM 50.0 °F 39.2 °F 66% 29.44 in 6.2 mi SW 21.9 mph 34.5 mph N/A   Partly Cloudy
8:50 PM 48.2 °F 39.2 °F 71% 29.47 in 6.2 mi SW 26.5 mph - N/A   Partly Cloudy
9:20 PM 48.2 °F 37.4 °F 66% 29.47 in 6.2 mi SW 25.3 mph - N/A   Partly Cloudy
9:50 PM 48.2 °F 39.2 °F 71% 29.47 in 6.2 mi SW 23.0 mph - N/A   Partly Cloudy